DMSP 5D-2 F13 DEB, 42281

Orbit data source: Space-Track

DMSP 5D-2 F13 DEB, 42281 is space debris in SSO originally from a launch on Fri, 24 Mar 1995 UTC launched from the Air Force Western Test Range (AFWTR). Debris objects in space refer to the collection of defunct objects orbiting the Earth. Examples of debris include non-operational satellites, rocket bodies, and fragments generated from explosions, collisions, or faulty payload assembly.

Loading next visibility...
Identifier
42281, 1995-015GX
Orbit
SSO
Country
Flag of USUS
Related business
Manufacturer
Unknown
Mission
Spacecraft
Bus & Motor
Unknown
Mass
Unknown
Launch date (UTC)
1995-03-24 (31 years ago)
Launch vehicle
Unknown
Launch site
Air Force Western Test Range (AFWTR)
Object type
Payload
Rocket body
Debris
Shape & HBR
Unknown shape, 0.1 m
Radar Cross Section
Small (<0.1 m²)

Expand to show TLE details & history
Last TLE update: 1 day ago

TLE from 1 day ago
0 DMSP 5D-2 F13 DEB
1 42281U 95015GX  25354.12795001  .00006889  00000-0  14664-2 0  9995
2 42281  98.5546  51.0672 0028881 232.7014 127.1551 14.59067725557659
Epoch: 2025-12-20T03:04Z
TLE epoch observation values (Epoch: 2025-12-20T03:04:14.880Z)
Latitude
-0.00008°
Longitude
-83.95399°
Altitude
711.538 km
Speed
7.493 km/s
True Right ascension
03h 24m 16s
True Declination
0° 00' 00"
Sunlit
Object was in full shadow at epoch
Visualization orbit readout
Latitude
Unknown
Longitude
Unknown
Altitude
Unknown
Speed
Unknown
Apparent Right ascension
Unknown
Apparent Declination
Unknown
Sunlit
N/A
Visualization observer readout
Local Sidereal Time
05:58:45
Azimuth
Unknown
Elevation
Unknown
Doppler factor
Unknown
Orbital elements
Apogee altitude
713.708 km
Perigee altitude
672.862 km
Semi-major axis
7,071.422 km
Eccentricity
0.00289
Inclination
98.5546°
RAAN
51.0672°
Arg. of periapsis
232.7014°
True anomaly
127.41829°
Mean anomaly
127.1551°
Eccentric anomaly
127.28675°
Mean motion
3.64992 °/min
Orbital period
98.63 mins
BSTAR
0.0014664
Loading maneuver chart data...
Computing Atmospheric mass density...

Documentation

Showing up to 5 results
|